| time (UTC) | temp F | wind direction | speed MPH | gust MPH | rain 1hr in | rain 24hr in | rain mn in | humidity % | barometer mb |
| 20260903020008 | 82 | 107 | 4.0 | 12.0 | 0.00 | 0.02 | 0.02 | 72 | 1011.3 |
| 20260903014526 | 82 | 77 | 4.0 | 10.0 | 0.00 | 0.02 | 0.02 | 72 | 1011.1 |
| 20260903013025 | 82 | 115 | 3.0 | 9.0 | 0.00 | 0.02 | 0.02 | 71 | 1010.8 |
| 20260903011546 | 82 | 121 | 5.0 | 10.0 | 0.00 | 0.02 | 0.02 | 71 | 1010.9 |
| 20260903010033 | 83 | 63 | 4.0 | 8.0 | 0.00 | 0.02 | 0.02 | 70 | 1010.7 |
| 20260903004521 | 83 | 69 | 4.0 | 10.0 | 0.00 | 0.02 | 0.02 | 70 | 1010.6 |
| 20260903003004 | 84 | 82 | 6.0 | 15.0 | 0.00 | 0.02 | 0.02 | 70 | 1010.3 |
| 20260903001557 | 84 | 119 | 8.0 | 16.0 | 0.00 | 0.02 | 0.02 | 69 | 1010.3 |
| 20260903000033 | 85 | 88 | 8.0 | 15.0 | 0.00 | 0.02 | 0.02 | 69 | 1010.4 |
| 20260902234528 | 86 | 128 | 6.0 | 14.0 | 0.00 | 0.02 | 0.02 | 69 | 1010.5 |
| 20260902233010 | 86 | 81 | 10.0 | 17.0 | 0.00 | 0.02 | 0.02 | 69 | 1010.6 |
| 20260902231533 | 86 | 75 | 8.0 | 15.0 | 0.00 | 0.02 | 0.02 | 69 | 1010.5 |
| 20260902230019 | 86 | 76 | 10.0 | 17.0 | 0.00 | 0.02 | 0.02 | 68 | 1010.4 |
| 20260902224511 | 87 | 73 | 9.0 | 14.0 | 0.00 | 0.02 | 0.02 | 68 | 1009.9 |
| 20260902223051 | 87 | 108 | 5.0 | 13.0 | 0.00 | 0.02 | 0.02 | 67 | 1009.8 |
| 20260902221556 | 87 | 55 | 6.0 | 13.0 | 0.00 | 0.02 | 0.02 | 67 | 1009.6 |
| 20260902220035 | 87 | 66 | 5.0 | 13.0 | 0.00 | 0.02 | 0.02 | 66 | 1009.6 |
| 20260902214528 | 87 | 61 | 3.0 | 15.0 | 0.00 | 0.02 | 0.02 | 65 | 1009.6 |
| 20260902213107 | 87 | 118 | 4.0 | 7.0 | 0.02 | 0.02 | 0.02 | 64 | 1009.6 |
| 20260902211535 | 87 | 98 | 3.0 | 7.0 | 0.02 | 0.02 | 0.02 | 62 | 1009.8 |
| 20260902210056 | 88 | 63 | 3.0 | 4.0 | 0.02 | 0.02 | 0.02 | 61 | 1009.9 |
| 20260902204515 | 91 | 295 | 8.0 | 16.0 | 0.02 | 0.02 | 0.02 | 61 | 1010.4 |
| 20260902203020 | 91 | 58 | 4.0 | 7.0 | 0.00 | 0.00 | 0.00 | 62 | 1010.2 |
| 20260902201540 | 93 | 76 | 3.0 | 7.0 | 0.00 | 0.00 | 0.00 | 63 | 1010.2 |
| 20260902200034 | 93 | 259 | 3.0 | 15.0 | 0.00 | 0.00 | 0.00 | 65 | 1010.3 |